Regional Weather Roundup
Issued by NWS

Home | Current Version | Previous Version | Graphics & Text | Print | Product List | Glossary On
Versions: 1 2 3 4 5 6 7 8 9 10 11 12 13 14 15 16 17 18 19 20 21 22 23 24 25 26 27 28 29 30 31 32 33 34 35 36 37 38 39 40 41 42 43 44 45 46 47 48 49 50
000
ASUS43 KTOP 252008
RWRKS

WEATHER ROUNDUP FOR KANSAS
NATIONAL WEATHER SERVICE GOODLAND KS
300 PM CDT MON SEP 25 2017

NOTE:  "FAIR" INDICATES FEW OR NO CLOUDS BELOW 12,000 FEET WITH NO
SIGNIFICANT WEATHER AND/OR OBSTRUCTIONS TO VISIBILITY.

KSZ001>006-013>018-027>032-041>047-252100-
NORTHWEST KANSAS

CITY           SKY/WX    TMP DP  RH WIND       PRES   REMARKS
GOODLAND       CLOUDY    50  49  96 N13       30.03F FOG
HAYS           CLOUDY    57  55  93 N16       29.95F
HILL CITY      CLOUDY    56  54  93 N12       29.99S
RUSSELL        CLOUDY    57  56  96 N15       29.92S FOG
$$

KSZ061>065-074>080-084>089-252100-
SOUTHWEST KANSAS

CITY           SKY/WX    TMP DP  RH WIND       PRES   REMARKS
DODGE CITY     LGT RAIN  58  57  97 N12       29.95F FOG
ELKHART          N/A     53  55 100 E8          N/A
GARDEN CITY    CLOUDY    55  53  93 NE15      29.97F FOG
GREAT BEND     LGT RAIN  63  62  97 NW8       29.93S
LIBERAL        RAIN      58  57  97 N14       29.96S
PRATT          RAIN      64  62  96 SE8       29.93R
$$

KSZ066>073-081>083-090>101-252100-
SOUTHEAST KANSAS

CITY           SKY/WX    TMP DP  RH WIND       PRES   REMARKS
CHANUTE        PTSUNNY   85  66  53 S15       29.89F
COFFEYVILLE    MOSUNNY   87  66  49 S12G23    29.87F
HUTCHINSON     LGT RAIN  66  64  93 N7        29.90F
MEDICINE LODGE   N/A     64  63  96 N9        29.88S
NEWTON         TSTM      66  65  96 NW17      29.92R
PARSONS        MOSUNNY   86  65  49 S8        29.89F
WICHITA INTL   TSTM      70  68  93 NW13      29.88S
WICHITA JABRA  CLOUDY    73  69  87 W6        29.86F
WICHITA MCCONL CLOUDY    73  66  79 W9        29.86F
WINFIELD       CLOUDY    84  64  50 SE15G25   29.85F
$$

KSZ007>012-019>026-033>040-048>060-102>105-252100-
NORTHEAST KANSAS

CITY           SKY/WX    TMP DP  RH WIND       PRES   REMARKS
CONCORDIA      LGT RAIN  63  63 100 NE5       29.92F
EMPORIA        PTSUNNY   84  63  49 SE15G23   29.86F
LAWRENCE       CLOUDY    86  66  51 S13       29.87F
MANHATTAN      CLOUDY    68  65  90 N8        29.90F
MARYSVILLE     LGT RAIN  64  64 100 NE6       29.93F
OLATHE IND     PTSUNNY   86  67  52 S10       29.89F
OLATHE EXE     MOSUNNY   84  66  54 S12G22    29.90F
SALINA         RAIN      67  64  90 NE7       29.92S FOG
TOPEKA BILLARD CLOUDY    86  67  52 SE10      29.85F
TOPEKA FORBES  CLOUDY    89  65  44 S14       29.86F
$$



USA.gov is the U.S. government's official web portal to all federal, state and local government web resources and services.